This is the latest recevied weather packets stored in our database for station/object DJ3AN. If no packets are shown the sender has not sent any weather packets the latest 10 day(s).
| Time | Temp. | Humidity | Pressure | Rain* | Wind** | Luminosity | Snow |
|---|---|---|---|---|---|---|---|
| 1777816806 | 26.67° C | 44% | 1007.3 hPa | 0 mm | - | - | - |
| 1777816505 | 26.11° C | 46% | 1007.3 hPa | 0 mm | - | - | - |
| 1777816207 | 26.11° C | 44% | 1007.5 hPa | 0 mm | - | - | - |
| 1777815906 | 25.56° C | 45% | 1007.6 hPa | 0 mm | - | - | - |
| 1777815606 | 25.56° C | 48% | 1007.7 hPa | 0 mm | - | - | - |
| 1777815306 | 25° C | 47% | 1007.8 hPa | 0 mm | - | - | - |
| 1777815006 | 25° C | 51% | 1007.8 hPa | 0 mm | - | - | - |
| 1777814706 | 25° C | 50% | 1008 hPa | 0 mm | - | - | - |
| 1777814406 | 25° C | 50% | 1008 hPa | 0 mm | - | - | - |
| 1777814106 | 25.56° C | 47% | 1008.1 hPa | 0 mm | - | - | - |
| 1777813805 | 25.56° C | 47% | 1008.1 hPa | 0 mm | - | - | - |
| 1777813505 | 25.56° C | 47% | 1008.2 hPa | 0 mm | - | - | - |
| 1777813205 | 25.56° C | 50% | 1008.2 hPa | 0 mm | - | - | - |
| 1777812905 | 25.56° C | 50% | 1008.3 hPa | 0 mm | - | - | - |
| 1777812606 | 25.56° C | 48% | 1008.4 hPa | 0 mm | - | - | - |
| 1777812305 | 26.11° C | 49% | 1008.4 hPa | 0 mm | - | - | - |
| 1777812005 | 25.56° C | 52% | 1008.5 hPa | 0 mm | - | - | - |
| 1777811705 | 25.56° C | 53% | 1008.5 hPa | 0 mm | - | - | - |
| 1777811405 | 25.56° C | 54% | 1008.5 hPa | 0 mm | - | - | - |
| 1777811105 | 25.56° C | 54% | 1008.6 hPa | 0 mm | - | - | - |
| 1777810805 | 25° C | 53% | 1008.6 hPa | 0 mm | - | - | - |
| 1777810506 | 25° C | 55% | 1008.7 hPa | 0 mm | - | - | - |
| 1777810205 | 25° C | 56% | 1008.7 hPa | 0 mm | - | - | - |
| 1777809905 | 25° C | 55% | 1008.8 hPa | 0 mm | - | - | - |
| 1777809605 | 25° C | 55% | 1008.8 hPa | 0 mm | - | - | - |
* Rain latest hour (hover to see other rain measurements)
** Current wind speed in m/s (hover to see current wind gust speed)